Location: Sternwarte_Laufen
(47.9344°N, 12.9346°E)
Time: 07:59:49
(UTC+02:00)

Envisat - Visible Passes

Search period start: 22 May 2018 00:00
Search period end: 01 June 2018 00:00
Orbit: 764 x 766 km, 98.2° (Epoch: 21 May)

Date Brightness Start Highest point End Pass type
(mag) Time Alt. Az. Time Alt. Az. Time Alt. Az.
22 May 5.7 22:00:10 10° WSW 22:02:27 13° W 22:04:45 10° WNW visible
23 May 5.1 21:21:01 10° SSW 21:25:17 27° W 21:29:34 10° NW visible
25 May 5.6 21:48:02 10° SW 21:51:09 16° W 21:54:17 10° NW visible
28 May 5.5 21:36:10 10° SW 21:39:52 20° W 21:43:34 10° NW visible
30 May 5.8 22:03:59 10° WSW 22:05:47 12° W 22:07:36 10° WNW visible
